• In Belarus
  • List of Countries
  • For 7 days
  • Water Temperature
  • Weather Map
  • Weather Widgets
  • user-avatar
    Login

    Hourly Weather Jingzhou

    Today, 15 November, Friday

    Time Temperature Precipitation Wind Pressure Humidity
    00:00 +15°C° 0 mm 4 mps 759 mmHg 31%
    01:00 +14°C° 0 mm 3 mps 759 mmHg 33%
    02:00 +14°C° 0 mm 3 mps 759 mmHg 36%
    03:00 +13°C° 0 mm 3 mps 758 mmHg 38%
    04:00 +13°C° 0 mm 3 mps 758 mmHg 41%
    05:00 +13°C° 0 mm 3 mps 758 mmHg 42%
    06:00 +13°C° 0 mm 3 mps 758 mmHg 42%
    07:00 +13°C° 0 mm 3 mps 758 mmHg 43%
    08:00 +17°C° 0 mm 3 mps 758 mmHg 40%
    09:00 +19°C° 0 mm 4 mps 759 mmHg 36%
    10:00 +21°C° 0 mm 4 mps 759 mmHg 33%
    11:00 +23°C° 0 mm 4 mps 758 mmHg 31%
    12:00 +25°C° 0 mm 4 mps 756 mmHg 28%
    13:00 +27°C° 0 mm 4 mps 755 mmHg 26%
    14:00 +26°C° 0 mm 3 mps 755 mmHg 28%
    15:00 +26°C° 0 mm 2 mps 755 mmHg 29%
    16:00 +25°C° 0 mm 1 mps 755 mmHg 31%
    17:00 +24°C° 0 mm 1 mps 756 mmHg 34%
    18:00 +23°C° 0 mm 1 mps 756 mmHg 37%
    19:00 +21°C° 0 mm 1 mps 756 mmHg 40%
    20:00 +21°C° 0 mm 1 mps 757 mmHg 41%
    21:00 +20°C° 0 mm 1 mps 757 mmHg 42%
    22:00 +20°C° 0 mm 1 mps 757 mmHg 43%
    23:00 +19°C° 0 mm 1 mps 757 mmHg 45%

    Tomorrow, 16 November, Saturday

    Time Temperature Precipitation Wind Pressure Humidity
    00:00 +19°C° 0 mm 1 mps 756 mmHg 46%
    01:00 +18°C° 0 mm 1 mps 756 mmHg 47%
    02:00 +18°C° 0 mm 1 mps 756 mmHg 48%
    03:00 +18°C° 0 mm 1 mps 756 mmHg 50%
    04:00 +16°C° 0 mm 1 mps 756 mmHg 51%
    05:00 +18°C° 0 mm 1 mps 756 mmHg 50%
    06:00 +18°C° 0 mm 1 mps 756 mmHg 49%
    07:00 +19°C° 0 mm 1 mps 756 mmHg 48%
    08:00 +20°C° 0 mm 1 mps 756 mmHg 46%
    09:00 +21°C° 0 mm 1 mps 757 mmHg 43%
    10:00 +23°C° 0 mm 1 mps 757 mmHg 41%
    11:00 +23°C° 0 mm 1 mps 756 mmHg 40%
    12:00 +24°C° 0 mm 2 mps 755 mmHg 39%
    13:00 +25°C° 0 mm 2 mps 754 mmHg 38%
    14:00 +24°C° 0 mm 2 mps 754 mmHg 40%
    15:00 +24°C° 0 mm 1 mps 754 mmHg 42%
    16:00 +24°C° 0 mm 1 mps 754 mmHg 44%
    17:00 +23°C° 0 mm 1 mps 754 mmHg 46%
    18:00 +23°C° 0 mm 1 mps 754 mmHg 47%
    19:00 +20°C° 0 mm 0 mps 755 mmHg 49%
    20:00 +22°C° 0 mm 1 mps 755 mmHg 49%
    21:00 +22°C° 0 mm 1 mps 755 mmHg 48%
    22:00 +22°C° 0 mm 1 mps 755 mmHg 48%
    23:00 +22°C° 0 mm 1 mps 755 mmHg 48%

    Day after tomorrow, 17 November, Sunday

    Time Temperature Precipitation Wind Pressure Humidity
    00:00 +21°C° 0 mm 2 mps 755 mmHg 48%
    01:00 +20°C° 0 mm 2 mps 755 mmHg 48%
    02:00 +20°C° 0 mm 2 mps 755 mmHg 47%
    03:00 +19°C° 0 mm 3 mps 755 mmHg 45%
    04:00 +19°C° 0 mm 3 mps 755 mmHg 43%
    05:00 +19°C° 0 mm 3 mps 755 mmHg 42%
    06:00 +18°C° 0 mm 4 mps 756 mmHg 42%
    07:00 +18°C° 0 mm 4 mps 756 mmHg 41%
    08:00 +19°C° 0 mm 4 mps 757 mmHg 39%
    09:00 +20°C° 0 mm 5 mps 757 mmHg 37%
    10:00 +21°C° 0 mm 5 mps 757 mmHg 35%
    11:00 +20°C° 0 mm 7 mps 758 mmHg 36%
    12:00 +18°C° 0 mm 9 mps 758 mmHg 38%
    13:00 +18°C° 0 mm 11 mps 759 mmHg 39%
    14:00 +15°C° 0.2 mm 13 mps 761 mmHg 42%
    15:00 +13°C° 0.2 mm 14 mps 762 mmHg 44%
    16:00 +10°C° 0.2 mm 16 mps 764 mmHg 46%
    17:00 +10°C° 0.6 mm 14 mps 766 mmHg 49%
    18:00 +9°C° 0.6 mm 13 mps 767 mmHg 52%
    19:00 +8°C° 0.6 mm 12 mps 769 mmHg 56%
    20:00 +7°C° 0.2 mm 11 mps 769 mmHg 60%
    21:00 +7°C° 0.2 mm 10 mps 770 mmHg 64%
    22:00 +6°C° 0.2 mm 9 mps 770 mmHg 68%
    23:00 +6°C° 0.1 mm 8 mps 770 mmHg 68%

    18 November, Monday

    Time Temperature Precipitation Wind Pressure Humidity
    00:00 +6°C° 0.1 mm 7 mps 770 mmHg 68%
    01:00 +6°C° 0.1 mm 7 mps 770 mmHg 67%
    02:00 +7°C° 0 mm 6 mps 770 mmHg 67%
    03:00 +6°C° 0 mm 5 mps 770 mmHg 66%
    04:00 +6°C° 0 mm 5 mps 771 mmHg 65%
    05:00 +7°C° 0.1 mm 3 mps 771 mmHg 63%
    06:00 +7°C° 0.1 mm 2 mps 771 mmHg 61%
    07:00 +8°C° 0.1 mm 1 mps 771 mmHg 59%
    08:00 +8°C° 0 mm 2 mps 771 mmHg 51%
    09:00 +10°C° 0 mm 2 mps 770 mmHg 43%
    10:00 +11°C° 0 mm 3 mps 770 mmHg 35%
    11:00 +12°C° 0 mm 3 mps 769 mmHg 31%
    12:00 +13°C° 0 mm 3 mps 768 mmHg 27%
    13:00 +14°C° 0 mm 3 mps 767 mmHg 23%
    14:00 +14°C° 0 mm 3 mps 767 mmHg 23%
    15:00 +15°C° 0 mm 2 mps 767 mmHg 23%
    16:00 +15°C° 0 mm 2 mps 767 mmHg 23%
    17:00 +14°C° 0 mm 2 mps 767 mmHg 24%
    18:00 +14°C° 0 mm 1 mps 768 mmHg 24%
    19:00 +13°C° 0 mm 1 mps 768 mmHg 24%
    20:00 +13°C° 0 mm 1 mps 768 mmHg 24%
    21:00 +12°C° 0 mm 1 mps 768 mmHg 23%
    22:00 +12°C° 0 mm 1 mps 768 mmHg 22%
    23:00 +11°C° 0 mm 1 mps 768 mmHg 21%

    19 November, Tuesday

    Time Temperature Precipitation Wind Pressure Humidity
    00:00 +11°C° 0 mm 1 mps 768 mmHg 21%
    01:00 +11°C° 0 mm 1 mps 767 mmHg 20%
    02:00 +10°C° 0 mm 1 mps 767 mmHg 20%
    03:00 +9°C° 0 mm 0 mps 767 mmHg 21%
    04:00 +8°C° 0 mm 0 mps 767 mmHg 21%
    05:00 +9°C° 0 mm 0 mps 767 mmHg 21%
    06:00 +9°C° 0 mm 0 mps 767 mmHg 22%
    07:00 +9°C° 0 mm 0 mps 768 mmHg 22%
    08:00 +11°C° 0 mm 0 mps 767 mmHg 19%
    09:00 +13°C° 0 mm 0 mps 767 mmHg 17%
    10:00 +15°C° 0 mm 0 mps 767 mmHg 15%
    11:00 +18°C° 0 mm 1 mps 766 mmHg 13%
    12:00 +19°C° 0 mm 1 mps 765 mmHg 12%
    13:00 +18°C° 0 mm 2 mps 764 mmHg 11%
    14:00 +18°C° 0 mm 2 mps 764 mmHg 11%
    15:00 +18°C° 0 mm 2 mps 764 mmHg 12%
    16:00 +18°C° 0 mm 2 mps 764 mmHg 13%
    17:00 +17°C° 0 mm 2 mps 764 mmHg 15%
    18:00 +16°C° 0 mm 2 mps 764 mmHg 17%
    19:00 +14°C° 0 mm 2 mps 765 mmHg 19%
    20:00 +14°C° 0 mm 2 mps 765 mmHg 21%
    21:00 +14°C° 0 mm 1 mps 765 mmHg 23%
    22:00 +13°C° 0 mm 1 mps 765 mmHg 25%
    23:00 +13°C° 0 mm 1 mps 765 mmHg 26%

    20 November, Wednesday

    Time Temperature Precipitation Wind Pressure Humidity
    00:00 +13°C° 0 mm 1 mps 765 mmHg 26%
    01:00 +13°C° 0 mm 1 mps 765 mmHg 26%
    02:00 +13°C° 0 mm 1 mps 764 mmHg 26%
    03:00 +13°C° 0 mm 1 mps 764 mmHg 26%
    04:00 +13°C° 0 mm 1 mps 764 mmHg 26%
    05:00 +13°C° 0 mm 1 mps 764 mmHg 26%
    06:00 +13°C° 0 mm 1 mps 765 mmHg 26%
    07:00 +13°C° 0 mm 1 mps 765 mmHg 26%
    08:00 +14°C° 0 mm 1 mps 765 mmHg 25%
    09:00 +13°C° 0 mm 0 mps 765 mmHg 24%
    10:00 +13°C° 0 mm 0 mps 765 mmHg 23%
    11:00 +14°C° 0 mm 0 mps 765 mmHg 22%
    12:00 +15°C° 0 mm 1 mps 764 mmHg 21%
    13:00 +16°C° 0 mm 1 mps 763 mmHg 20%
    14:00 +16°C° 0 mm 1 mps 763 mmHg 20%
    15:00 +16°C° 0 mm 1 mps 763 mmHg 21%
    16:00 +16°C° 0 mm 1 mps 763 mmHg 22%
    17:00 +15°C° 0 mm 1 mps 763 mmHg 23%
    18:00 +14°C° 0 mm 1 mps 764 mmHg 25%
    19:00 +13°C° 0 mm 1 mps 764 mmHg 26%
    20:00 +13°C° 0 mm 1 mps 764 mmHg 27%
    21:00 +13°C° 0 mm 1 mps 764 mmHg 28%
    22:00 +12°C° 0 mm 1 mps 765 mmHg 29%
    23:00 +11°C° 0 mm 0 mps 764 mmHg 30%
    Show more